SCP
0 0 1 1 1 1 1 1 0 0 0 0 1 1 0 0 0 0 1 1 1 0 0 0 0 0 0 0 0 0 1 1 1 0 0 0 0 1 1 1 1 1 1
0 0 1 1 1 1 1 1 1 0 0 1 1 1 0 0 1 1 1 1 1 0 0 0 0 0 0 0 0 0 1 1 1 0 0 0 1 1 1 1 1 1 1
0 0 1 1 1 1 1 1 1 1 1 1 1 1 0 1 1 1 1 1 1 0 0 0 0 0 0 0 0 0 0 0 0 0 0 0 0 1 1 1 1 1 1
0 1 1 1 1 1 1 1 1 1 1 1 1 1 0 0 1 1 1 1 1 1 1 0 0 0 0 0 0 0 0 0 0 0 0 0 0 0 1 1 1 1 1
1 1 1 1 1 1 1 1 1 1 1 1 1 0 0 0 0 0 1 1 1 1 1 1 0 0 0 0 0 0 0 0 0 0 0 1 1 1 1 1 1 1 1
1 1 1 1 1 1 1 1 1 1 1 1 1 0 0 0 0 0 0 1 1 1 1 1 0 0 0 0 0 0 0 0 0 0 0 1 1 1 1 1 1 1 1
1 1 1 1 1 1 1 1 0 1 1 1 1 1 0 0 0 0 0 0 1 1 1 1 0 0 0 0 0 0 0 0 0 0 0 0 1 1 1 1 1 1 1
0 1 1 1 1 1 1 1 0 1 1 1 1 1 1 0 0 0 0 0 1 1 1 1 0 0 0 0 0 0 0 0 0 0 0 0 0 0 1 1 1 1 1
0 0 1 1 1 1 1 1 0 0 1 1 1 1 0 0 0 0 0 0 1 1 1 1 0 0 0 0 0 0 0 0 0 0 0 0 0 0 0 1 1 1 1
0 0 0 1 1 1 1 0 0 0 1 1 1 1 0 0 0 0 0 0 0 1 1 1 1 0 0 0 0 0 0 0 0 0 0 0 0 0 0 0 1 1 1
0 0 0 0 1 1 1 0 0 0 0 0 0 0 0 0 0 0 0 0 0 0 1 1 1 0 0 0 0 0 0 0 0 0 0 0 0 0 0 0 0 1 1
0 0 0 0 0 1 0 0 0 0 0 0 0 0 0 0 0 0 0 0 0 0 0 0 0 0 0 0 0 0 0 0 0 0 0 0 0 0 0 0 0 0 0
0 0 0 0 0 0 0 0 0 0 0 0 0 0 0 0 1 1 0 0 0 0 0 0 0 0 0 0 0 0 0 0 0 0 0 0 0 0 0 0 0 0 0
0 0 0 0 0 0 1 0 0 0 0 0 0 0 0 0 1 1 1 0 0 0 0 0 0 0 0 0 0 0 0 0 0 0 0 0 0 0 0 0 0 0 0
0 0 0 0 0 0 1 0 0 0 0 0 0 0 0 0 1 1 0 0 0 0 0 1 1 0 0 0 0 0 0 0 0 0 0 0 0 0 0 0 0 0 0
0 0 0 0 0 0 1 1 0 0 0 0 0 0 0 0 1 1 0 0 0 0 1 1 1 0 0 0 0 0 0 0 0 0 0 0 0 0 0 0 0 0 0
0 0 0 0 0 0 0 0 0 0 0 0 0 0 0 1 1 1 0 0 0 0 1 1 1 0 0 0 0 0 0 0 0 0 0 0 0 0 0 0 0 0 0
0 0 0 0 0 1 0 0 0 0 0 0 0 0 0 1 1 1 1 0 0 0 1 1 1 0 0 0 0 0 0 0 0 0 0 0 0 0 0 0 0 0 0
0 0 0 0 0 1 1 1 0 0 0 0 0 0 0 1 1 1 1 0 0 0 1 1 0 0 0 0 0 0 0 0 0 0 0 0 0 0 0 0 0 0 0
0 0 0 0 0 1 1 1 1 0 0 0 0 0 0 0 1 1 1 0 0 0 1 1 1 0 0 0 0 0 0 0 0 0 0 0 0 0 0 0 0 0 0
0 0 0 0 0 0 1 1 1 1 1 0 0 0 0 0 1 1 1 0 0 0 1 1 1 0 0 0 0 0 0 0 0 0 0 0 0 0 0 0 0 0 1
0 0 0 0 0 0 1 1 1 1 1 1 0 0 0 0 0 0 0 0 0 0 1 1 0 0 0 0 0 0 0 0 0 0 0 0 0 0 0 0 0 1 1
0 0 0 0 0 0 0 1 1 1 1 1 1 0 0 0 0 0 0 0 0 0 1 1 0 0 0 0 0 0 0 0 0 0 0 0 0 0 0 0 0 0 1
0 0 0 0 0 0 0 0 0 1 1 1 1 1 1 0 0 0 0 0 1 0 0 0 0 0 0 0 0 0 0 0 0 0 0 0 0 0 0 0 0 0 0
0 0 0 0 0 0 0 0 0 0 0 1 1 1 1 1 0 0 0 0 0 0 0 0 0 0 0 0 0 0 0 0 0 0 0 0 0 0 0 0 0 0 0
0 0 0 0 0 0 0 0 0 0 0 0 1 1 1 1 1 0 0 0 0 0 0 0 0 0 0 0 0 0 0 0 0 0 0 0 0 0 0 0 0 0 0
Wind_Speed
5 6 6 7 7 8 8 9 9 8 9 9 10 9 9 9 9 9 9 10 10 10 10 11 11 11 12 12 12 12 12 12 11 11 11 11 11 11 11 10 9 10 12
6 7 6 7 8 8 8 9 8 8 8 9 9 9 9 9 9 9 9 9 9 10 10 10 10 11 11 12 12 12 12 11 11 10 9 10 10 10 11 11 11 9 12
7 7 8 7 8 8 8 8 8 8 8 8 9 9 9 9 9 8 9 9 9 9 10 10 10 11 11 11 11 12 12 11 11 9 7 7 8 10 10 11 12 11 11
7 7 7 8 8 8 8 8 8 8 7 8 8 9 9 8 8 8 8 9 9 9 9 10 10 10 11 11 11 11 11 11 9 6 6 6 7 9 10 11 11 11 10
7 7 7 7 8 8 8 8 7 7 7 7 7 8 8 8 7 7 8 8 9 9 9 10 10 10 10 10 10 10 10 10 7 6 7 7 7 10 10 10 10 10 10
7 6 7 7 8 8 8 7 7 7 7 7 7 7 8 7 7 7 7 8 8 9 9 10 9 10 10 10 10 10 9 8 5 6 6 6 6 9 10 9 9 9 9
6 5 7 7 7 7 7 7 7 7 6 6 6 7 8 7 7 7 7 7 8 8 9 9 9 9 9 9 10 9 8 6 5 6 5 5 7 8 8 8 8 8 8
6 5 5 6 6 6 6 7 6 6 6 6 6 7 7 7 7 6 6 7 7 8 8 8 8 8 8 8 9 8 7 4 5 5 5 5 7 8 8 8 8 8 7
5 4 4 5 6 6 5 5 6 5 5 5 6 6 6 6 6 6 6 6 7 7 7 8 8 8 8 8 8 7 6 4 4 4 4 4 6 6 7 8 7 7 7
4 3 3 4 4 5 5 5 5 5 5 5 5 5 5 5 5 5 5 6 6 7 7 7 7 7 8 7 7 7 5 2 4 4 3 5 6 6 7 7 7 7 6
3 3 3 3 3 3 4 5 5 4 4 4 5 5 4 3 3 4 4 4 5 6 7 7 7 7 7 7 6 5 2 2 3 3 3 5 6 6 6 6 5 5 6
5 4 3 4 3 3 3 3 3 3 3 3 3 3 2 2 2 2 5 4 5 5 6 7 7 6 3 3 4 2 1 2 2 2 4 5 5 5 4 4 4 4 4
5 4 3 3 4 4 3 3 2 2 2 2 2 2 2 1 2 2 2 3 4 4 4 5 4 2 2 2 2 2 2 2 1 2 3 5 4 3 3 3 3 3 3
5 4 4 3 3 3 3 3 3 2 2 2 2 2 2 1 1 2 1 2 2 2 2 2 2 3 2 2 2 2 2 1 1 1 3 5 4 3 3 2 2 2 2
4 4 4 4 4 3 3 2 2 3 2 2 2 2 2 2 2 2 2 2 2 2 2 2 2 3 2 2 2 2 2 2 1 1 2 5 4 4 3 3 3 2 1
5 5 4 4 4 4 3 3 3 2 2 2 2 2 2 2 2 2 2 2 2 2 2 2 2 2 2 1 1 1 1 1 1 1 1 2 4 4 4 4 4 3 2
6 5 5 5 5 5 4 3 3 2 2 2 2 2 2 2 2 2 2 2 2 2 2 2 3 2 2 1 1 1 1 1 1 1 1 1 1 3 4 4 4 4 3
6 6 5 4 5 5 4 4 3 2 3 2 2 2 3 3 3 3 2 3 3 3 3 3 2 2 2 2 1 1 1 0 0 0 1 1 1 1 2 4 5 5 4
6 6 6 6 6 6 5 4 3 3 2 2 2 2 2 3 3 3 2 2 3 3 3 3 3 2 2 2 1 1 1 1 1 1 1 1 1 1 2 2 4 5 5
5 6 6 6 6 6 5 4 3 3 2 2 2 2 3 3 3 3 3 3 4 4 3 3 3 2 2 2 1 1 1 1 1 1 2 1 1 2 2 2 2 2 4
5 6 6 6 6 6 5 4 4 4 3 3 3 3 3 3 4 3 3 3 4 4 4 5 4 3 2 2 2 1 2 2 2 2 2 1 1 2 2 2 2 2 2
7 7 7 7 7 7 5 5 4 4 4 3 3 3 4 4 4 3 4 3 4 4 5 5 4 3 2 2 2 2 2 3 3 3 2 2 2 1 2 2 2 2 2
6 7 6 7 7 7 6 4 4 4 3 4 4 3 4 4 4 4 5 4 4 5 5 6 6 5 4 3 3 2 2 3 1 2 3 2 2 2 2 1 2 2 2
6 5 7 7 8 8 8 7 7 6 5 5 4 4 4 5 5 5 5 5 5 4 5 5 5 5 5 4 3 3 2 1 2 2 2 2 2 3 3 2 2 2 2
4 5 5 6 7 8 8 8 8 7 5 4 4 5 5 5 5 5 5 5 5 4 5 5 5 6 5 5 4 3 3 2 3 3 3 2 2 2 2 3 2 2 2
3 4 4 5 6 6 8 8 8 8 7 6 6 5 5 4 4 6 5 5 5 5 5 5 5 6 5 5 4 3 3 3 3 4 4 3 3 2 2 2 2 2 2
Wind_Direction
158 152 149 139 129 125 123 126 122 117 113 113 114 110 107 103 100 98 97 94 91 89 86 84 80 79 79 77 76 72 69 68 71 71 69 72 77 80 79 74 71 73 69
152 151 143 136 126 123 122 121 122 121 118 117 115 113 111 106 103 101 98 97 95 92 88 85 84 82 80 78 77 74 71 68 66 66 67 73 73 76 78 73 68 70 71
146 145 144 133 125 119 119 119 119 121 122 120 118 114 112 109 106 104 100 99 99 96 93 89 88 87 84 80 78 77 75 71 65 63 67 74 76 75 77 76 73 71 70
142 143 141 129 124 121 118 118 120 119 116 118 119 115 110 108 107 105 103 102 101 98 94 92 88 88 87 84 80 79 77 73 65 57 69 70 72 71 72 74 72 71 69
142 141 132 127 127 125 123 117 116 117 115 111 115 117 114 109 106 108 107 105 104 101 97 94 90 90 87 84 82 81 79 75 63 65 70 69 70 68 68 69 68 67 66
141 139 131 129 128 127 123 120 116 112 112 114 114 116 116 112 108 110 112 110 107 103 99 95 91 90 89 87 85 82 78 75 76 73 69 67 71 71 67 67 68 68 65
140 137 138 128 128 129 128 123 116 114 111 111 114 115 114 112 111 114 114 115 112 107 102 98 94 93 92 89 86 84 78 66 71 73 70 67 68 69 70 69 66 69 68
139 135 138 126 125 126 126 123 119 118 114 112 109 112 111 110 111 114 117 118 115 111 107 102 98 95 94 92 89 83 76 63 81 77 75 70 64 65 68 69 66 67 70
133 136 141 148 142 130 122 119 117 117 116 113 110 107 106 105 106 111 113 114 115 114 111 106 104 99 96 94 89 82 72 49 82 82 79 72 62 65 65 64 62 60 62
136 141 143 145 152 153 145 119 112 111 113 111 110 105 103 104 104 104 116 114 116 116 113 111 107 100 94 90 85 78 69 60 83 89 82 73 62 64 63 61 58 56 55
156 163 161 156 155 155 152 136 133 123 118 123 123 111 116 132 131 131 113 110 114 113 113 111 106 99 97 93 83 76 79 79 82 74 72 65 62 61 62 60 58 55 52
186 185 181 176 170 166 156 154 155 153 148 148 136 133 136 133 124 130 117 111 107 109 116 111 107 111 115 113 101 102 89 75 76 73 69 56 60 59 60 59 54 49 50
194 187 193 194 186 181 172 168 161 160 153 152 142 139 136 135 135 138 134 127 129 132 131 125 131 125 110 98 104 94 81 77 71 75 69 51 55 59 55 52 47 44 39
193 194 195 200 196 194 188 178 171 165 161 160 149 155 155 156 156 152 145 144 147 146 139 144 138 123 116 106 100 96 90 78 58 58 58 45 45 48 44 36 37 29 22
202 201 198 200 200 193 191 185 181 176 172 165 163 171 177 178 172 165 153 150 148 145 153 153 147 140 133 120 108 104 95 82 64 48 62 47 32 29 19 10 5 356 352
211 209 204 200 198 191 191 192 187 181 172 170 166 179 189 193 183 173 165 159 154 153 155 161 158 149 145 141 127 108 100 94 68 45 34 56 40 21 10 3 350 349 343
216 212 206 202 195 191 191 193 190 181 176 178 176 185 187 190 188 183 172 174 165 158 162 162 158 153 152 154 148 131 110 71 63 39 1 353 28 34 15 1 353 340 334
220 213 207 199 196 193 189 190 188 184 176 180 185 188 188 189 192 193 184 180 167 164 170 169 169 163 168 178 178 167 172 160 194 309 323 334 331 332 10 7 357 346 330
220 213 206 200 198 193 187 184 183 183 181 182 188 191 192 194 194 194 193 184 173 170 177 175 180 181 181 183 192 202 214 223 225 252 286 309 308 300 302 355 356 350 338
214 210 205 199 197 191 182 180 181 183 188 190 191 192 189 191 193 196 190 185 180 178 181 182 177 176 180 176 187 215 226 233 237 248 263 274 286 287 290 294 294 321 331
213 207 205 201 197 192 187 188 192 199 198 197 199 197 197 191 187 193 189 186 186 189 186 184 176 169 167 165 187 213 217 215 228 242 255 260 264 269 276 278 283 290 293
214 208 204 204 201 199 198 196 197 197 204 206 199 200 202 195 188 192 192 189 192 192 186 185 183 179 172 184 197 204 227 208 212 225 235 251 268 267 271 280 282 284 292
222 215 209 206 204 202 198 188 182 189 195 198 203 202 204 199 193 195 197 195 193 195 193 194 196 192 190 192 214 223 222 231 233 204 223 236 252 265 272 282 278 285 291
226 219 215 210 205 200 195 195 195 198 201 207 206 204 200 200 202 198 196 198 198 199 200 199 202 205 204 200 200 233 265 282 245 238 208 223 243 256 258 263 269 277 282
225 218 212 208 205 200 199 199 200 206 206 203 199 201 199 198 204 204 198 198 199 203 204 199 198 206 212 212 204 198 212 229 246 252 252 241 239 236 251 263 268 276 281
225 218 210 206 203 198 199 202 205 206 202 199 199 200 200 199 203 207 203 199 202 204 206 206 201 205 211 214 212 205 202 209 216 229 246 258 264 258 268 261 262 271 284